Location: ????????
(55.6189°N, 38.3031°E)
Time: 11:03:58
(UTC+00:00)

Cosmos 1833 Rocket - Pass Details

Date: 15 November 2019
Orbit: 832 x 840 km, 71.0° (Epoch: 14 December)

Event Time Altitude Azimuth Distance (km) Brightness Sun altitude
Exits shadow 01:48:58 46° 185° (S) 1,115 3.2 -26.6°
Maximum altitude 01:50:36 70° 119° (ESE) 890 2.8 -26.4°
Drops below altitude 10° 01:56:12 10° 37° (NE) 2,458 5.6 -25.6°
Sets 01:58:40 0° 35° (NE) 3,397 6.4 -25.3°
